Regional Weather Roundup
Issued by NWS

Home | Current Version | Previous Version | Text Only | Print | Product List | Glossary Off
Versions: 1 2 3 4 5 6 7 8 9 10 11 12 13 14 15 16 17 18 19 20 21 22 23 24 25 26 27 28 29 30 31 32 33 34 35 36 37 38 39 40 41 42 43 44 45 46 47 48 49 50

000
ASUS43 KMKX 251900
RWRWI

WISCONSIN REGIONAL WEATHER ROUNDUP
NATIONAL WEATHER SERVICE MILWAUKEE/SULLIVAN WI
200 PM CDT MON JUL 25 2016

NOTE: "FAIR" INDICATES FEW OR NO CLOUDS BELOW 12,000 FEET WITH NO
SIGNIFICANT WEATHER AND/OR OBSTRUCTIONS TO VISIBILITY.

WIZ001-002-006>008-014>016-023>028-252000-
NORTHWEST WISCONSIN

CITY           SKY/WX    TMP DP  RH WIND       PRES   REMARKS
SUPERIOR ARPT  SUNNY     82  62  50 W10G17    29.99F HX  83
ASHLAND        MOSUNNY   82  60  47 W9G20     30.01S HX  82
HAYWARD        MOSUNNY   80  57  45 VRB6      30.03F HX  80
SIREN          MOSUNNY   81  61  50 W7        30.04F HX  81
CUMBERLAND     PTSUNNY   77  59  53 NW8       30.06S
RICE LAKE      MOSUNNY   78  60  54 NW7       30.06F
CHETEK         MOSUNNY   80  61  51 MISG      30.05S HX  81
LADYSMITH      MOSUNNY   80  60  50 NW12G21   30.06S HX  80
EAU CLAIRE     NOT AVBL
MENOMONIE      MOSUNNY   84  60  45 NW12      30.05S HX  84
NEW RICHMOND   SUNNY     81  58  44 NW8       30.06S HX  81
OSCEOLA        SUNNY     81  60  49 N5        30.07F HX  82
$$

WIZ003>005-009-010-017-018-252000-
NORTH CENTRAL WISCONSIN

CITY           SKY/WX    TMP DP  RH WIND       PRES   REMARKS
MANITOWISH WTR PTSUNNY   76  59  55 NW10G17   30.03S
ARBOR VITAE    MOSUNNY   79  60  51 NW10G16   30.03S HX  80
WOODRUFF       MOSUNNY   79  60  51 NW10G16   30.03S HX  80
RHINELANDER    PTSUNNY   80  57  45 W13       30.04S HX  80
EAGLE RIVER    PTSUNNY   75  54  47 NW10G16   30.03R
LAND O LAKES   MOSUNNY   76  54  46 NW8G17    30.03S
PHILLIPS       MOSUNNY   77  60  55 W7        30.03F
TOMAHAWK       MOSUNNY   76  57  50 W8        30.04S
MEDFORD        MOSUNNY   77  60  54 NW8       30.05S
MERRILL        MOSUNNY   79  60  51 N10       30.03F HX  80
$$

WIZ029-030-035-036-043>047-252000-
CENTRAL WISCONSIN

CITY           SKY/WX    TMP DP  RH WIND       PRES   REMARKS
WAUSAU         MOSUNNY   81  58  45 NW12G18   30.00F HX  81
MOSINEE        MOSUNNY   81  61  50 W9        30.04S HX  81
MARSHFIELD     MOSUNNY   81  61  50 NW13G21   30.04S HX  82
STEVENS POINT  MOSUNNY   78  58  51 NW9G23    30.02F
WAUPACA        MOSUNNY   85  60  42 W12G18    30.00S HX  85
WAUTOMA        SUNNY     83  61  47 NW16G23   30.00F HX  83
WISC RAPIDS    MOSUNNY   83  59  44 NW13      30.03F HX  83
CAMP DOUGLAS   NOT AVBL
$$

WIZ011>013-019>022-031-037>040-048>050-252000-
NORTHEAST WISCONSIN

CITY           SKY/WX    TMP DP  RH WIND       PRES   REMARKS
ANTIGO         SUNNY     78  58  51 NW8G17    30.03S
SHAWANO        MOSUNNY   83  58  42 W12       29.98F HX  83
OCONTO         SUNNY     82  60  46 NW9G17    29.95S HX  82
STURGEON BAY   SUNNY     81  61  50 W12       29.96S HX  82
GREEN BAY      MOSUNNY   82  67  60 NW13G21   29.97F HX  84
MANITOWOC      NOT AVBL
APPLETON       PTSUNNY   82  61  47 W14       29.98F HX  83
CLINTONVILLE   SUNNY     82  55  39 NW12G18   29.98F HX  82
OSHKOSH        MOSUNNY   83  63  50 NW12G20   29.99F HX  84
$$

WIZ032>034-041-042-053>061-252000-
SOUTHWEST WISCONSIN

CITY           SKY/WX    TMP DP  RH WIND       PRES   REMARKS
LA CROSSE      SUNNY     84  63  49 NW12      30.03F HX  85
SPARTA         MOSUNNY   82  62  50 NW12G21   30.05S HX  83
VIROQUA        SUNNY     80  62  53 NW9       30.07S HX  82
BOSCOBEL       MOSUNNY   86  61  42 NW8       30.03F HX  86
PRAIRIE DU CHI MOSUNNY   82  58  44 NW10      30.04S HX  82
PLATTEVILLE    SUNNY     81  64  57 NW9       30.06S HX  82
$$

WIZ056-057-062-063-064-067-068-252000-
SOUTH CENTRAL WISCONSIN

CITY           SKY/WX    TMP DP  RH WIND       PRES   REMARKS
REEDSBURG      MOSUNNY   82  63  53 NW10G17   30.03S HX  83
BARABOO/DELLS  MOSUNNY   81  60  48 N8G16     30.03F HX  81
LONE ROCK      NOT AVBL
MINERAL POINT  SUNNY     82  63  51 NW6       30.05S HX  83
MADISON        PTSUNNY   84  63  49 VRB7      30.02S HX  85
MIDDLETON      MOSUNNY   83  64  52 NW13      30.03S HX  84
WATERTOWN      MOSUNNY   82  64  54 NW10      30.01S HX  84
MONROE         SUNNY     81  61  50 N8        30.04S HX  81
JANESVILLE     MOSUNNY   86  63  45 NW14      30.01F HX  87
$$

WIZ051-052-058>065-066-070>072-252000-
SOUTHEAST WISCONSIN

CITY           SKY/WX    TMP DP  RH WIND       PRES   REMARKS
MILWAUKEE      PTSUNNY   89  63  41 NW9       29.98F HX  90
WAUKESHA       NOT AVBL
MILWAUKEE/TIMM MOSUNNY   82  57  42 NW9       30.00F HX  82
RACINE         SUNNY     83  64  52 E12       30.01S HX  84
BURLINGTON     SUNNY     84  64  52 NW10G16   30.00F HX  85
KENOSHA        SUNNY     86  65  49 N8        30.00S HX  88
FOND DU LAC    MOSUNNY   84  63  49 NW9       29.99F HX  85
SHEBOYGAN      SUNNY     82  62  50 W14G20    29.99S HX  83
WEST BEND      PTSUNNY   81  61  50 W9        30.00F HX  81
JUNEAU         MOSUNNY   79  65  62 NW7       30.02F HX  81
$$

LSZ147-162-252000-
LAKE SUPERIOR

STATION/POSITION TIME  TEMP    WIND        PRES    WAVE
                       AIR SEA DIR/SP/G            HT/PER
                 (UTC) (F)     (DEG/KT/KT) (MB)    (FT/S)
W MID LAKE BUOY  1750   64 60  240/ 14/ 16 1014.0F   2/ 4
DEVILS ISLAND    1800   69     230/ 14/ 17 1014.9F
SAXON HARBOR     1800   76      50/  2/  3 1015.9S
$$

LMZ867-665-643>646-252000-
LAKE MICHIGAN

STATION/POSITION TIME  TEMP    WIND        PRES    WAVE
                       AIR SEA DIR/SP/G            HT/PER
                 (UTC) (F)     (DEG/KT/KT) (MB)    (FT/S)
CHAMBERS ISLAND  1800   81     320/  2/  8 1013.9S
S GREEN BAY BUOY 1730   76 74  270/ 10/ 14   N/A
N MID LAKE BUOY  1750   71 69  250/  8/ 10 1012.9R   1/ 3
NORTHPORT PIER   1800   79     300/  8/ 12 1013.5S
SISTER BAY       1806   80     320/  9/ 11   N/A
ALGOMA LAKESHORE 1813          300/  8/ 13   N/A
KEWAUNEE LAKESHO 1800   80     300/  8/ 13 1014.1S
SHEBOYGAN LAKESH 1800   80     290/ 11/ 15 1015.2R
PORT WASHINGTON  1800   85     310/  9/ 14 1015.9F
ATWATER BUOY     1800   71 58  120/  2/  2 1017.4R
MILWAUKEE LAKESH 1810   77     100/  7/  9   N/A
S MID LAKE BUOY  1750   73 73  280/  2/  4 1015.4R   1/ 4
KENOSHA   LAKESH 1800   76     120/  4/  7 1015.2S
$$

TC  - TEMPERATURE IN CELSIUS
VSB - VISIBILITY IN STATUTE MILES
WCI - WIND CHILL INDEX
HX  - HEAT INDEX





USA.gov is the U.S. government's official web portal to all federal, state and local government web resources and services.